[Date Prev][Date Next][Thread Prev][Thread Next] - [Date Index][Thread Index][Author Index]
2 Line ISS Keps 9-27
- Subject: [sarex] 2 Line ISS Keps 9-27
- From: "Scott Avery WA6LIE" <wa6lie@xxxxxxx>
- Date: Mon, 27 Sep 2004 05:15:44 -0700
- Seal-Send-Time: Mon, 27 Sep 2004 05:15:44 -0700
ISS
1 25544U 98067A 04271.43414352 .00013628 00000-0 12278-3 0 7799
2 25544 51.6358 163.8943 0009895 156.5133 183.0506 15.68479073334372
----
Via the sarex mailing list at AMSAT.ORG courtesy of AMSAT-NA.
To unsubscribe, send "unsubscribe sarex" to Majordomo@amsat.org
AMSAT Home